Showing default

RCM 2, 44324

Orbit data source: Space-Track

RCM 2, 44324 is a payload satellite owned by CSA (CA) in SSO that was launched on Wed, 12 Jun 2019 UTC via an FALCON 9 launch vehicle from the Air Force Western Test Range (AFWTR). Payload-class satellites include a variety of spacecraft equipped with specific instruments for various scientific and technological missions. These include communications satellites like Starlink; space stations such as the ISS; scientific satellites like the Hubble; Earth observation satellites from companies like Planet Labs, Umbra, and HawkEye 360; GPS; miniature CubeSats for education and research; and military/defense satellites.

Loading next visibility...
Identifier
44324, 2019-033C
Orbit
SSO
Country
Flag of CACA
Related business
Manufacturer
BALM/MAXAR
Mission
Operational Civil Radar Imaging
Bus & Motor
MAC-200, Unknown motor
Mass
1,450 kg wet, ~1,400 kg dry
Launch date (UTC)
2019-06-12 (7 years ago)
Launch vehicle
FALCON 9
Launch site
Air Force Western Test Range (AFWTR)
Object type
Payload
Rocket body
Debris
Shape & HBR
Box + 2 Pan, 3.5 m
Radar Cross Section
10.097 m², Large (>1 m²)

Expand to show TLE details & history
Last TLE update: 1 day ago

TLE from 1 day ago
0 RCM 2
1 44324U 19033C   26172.26879796  .00000086  00000-0  13826-4 0  9993
2 44324  97.7605 179.7011 0001542  90.8059 269.3337 14.92589726382696
Epoch: 2026-06-21T06:27Z
TLE epoch observation values (Epoch: 2026-06-21T06:27:04.143Z)
Latitude
-0.00003°
Longitude
173.46234°
Altitude
592.92 km
Speed
7.563 km/s
True Right ascension
11h 58m 48s
True Declination
0° 00' 00"
Sunlit
Object was in daylight at epoch
Visualization orbit readout
Latitude
Unknown
Longitude
Unknown
Altitude
Unknown
Speed
Unknown
Apparent Right ascension
Unknown
Apparent Declination
Unknown
Sunlit
N/A
Visualization observer readout
Local Sidereal Time
21:37:18
Azimuth
Unknown
Elevation
Unknown
Doppler factor
Unknown
Orbital elements
Apogee altitude
587.956 km
Perigee altitude
585.808 km
Semi-major axis
6,965.019 km
Eccentricity
0.00015
Inclination
97.7605°
RAAN
179.7011°
Arg. of periapsis
90.8059°
True anomaly
269.31603°
Mean anomaly
269.3337°
Eccentric anomaly
269.32487°
Mean motion
3.73387 °/min
Orbital period
96.41 mins
BSTAR
0.000013826
Loading maneuver chart data...
Computing Atmospheric mass density...
Loading historical data...
Loading historical data...
Loading historical data...
Loading historical data...
Loading historical data...
Loading historical data...
Loading historical data...
Other satellites on launch #33 in the year 2019 (2019-06-12 UTC)

Documentation

Showing up to 5 results
|